Flag Weather past 2 weeks in Shymkent, Kazakhstan

Now
34 °F

Fog.


Feels Like: 34 °F
Forecast: 29 / 54 °F
Wind: No wind

Location: Shymkent Airport

Current Time: Oct 30, 2014 at 10:08:59 PM

Latest Report: Oct 30, 2014 at 9:30 PM


Visibility: 2 mi

Pressure: 30.45 "Hg

Humidity: 75%

Dew point: 27 °F

Location of ShymkentLocation

Historic Weather in Shymkent — Graph

°F

Shymkent temperature yesterday

Maximum temperature yesterday: 39 °F (at 1:30 PM)
Minimum temperature yesterday: 36 °F (at 12:00 AM)
Average temperature yesterday: 37 °F

Past Weeks' High & Low Weather Summary

 TemperatureHumidityPressure
High82 °F (Oct 20, 12:30 PM)94% (Oct 24, 12:30 AM)30.60 "Hg (Oct 24, 12:30 AM)
Low25 °F (Oct 27, 3:30 AM)7% (Oct 18, 3:00 PM)29.74 "Hg (Oct 19, 12:30 AM)
Average53 °F63%30.14 "Hg
* Reported Oct 15 9:00 PM — Oct 30 9:00 PM, Shymkent, Weather by CustomWeather, © 2014

Note: Actual official high and low records may vary slightly from our data, if they occured in-between our weather recording intervals... More about our weather records

Advertising

Shymkent weather history for previous 24 hours

 ConditionsComfort  
Time TempWeatherWind HumidityBarometerVisibility
9:00 PM
Oct 30
37 °FFog.1 mph70%30.48 "Hg3 mi
8:30 PM36 °FFog.1 mph75%30.48 "Hg3 mi
8:00 PM37 °FClear.1 mph70%30.48 "Hg4 mi
7:30 PM39 °FClear.1 mph65%30.48 "Hg4 mi
7:00 PM41 °FClear.1 mph61%30.48 "Hg4 mi
6:30 PM41 °FClear.1 mph61%30.48 "Hg10 mi
6:00 PM43 °FClear.3 mph57%30.48 "Hg10 mi
5:30 PM45 °FClear.3 mph49%30.48 "Hg10 mi
5:00 PM46 °FPassing clouds.3 mph43%30.48 "HgN/A
4:30 PM46 °FSunny.1 mph46%30.48 "Hg10 mi
4:00 PM46 °FPassing clouds.3 mph46%30.51 "HgN/A
3:30 PM46 °FPassing clouds.6 mph50%30.51 "HgN/A
3:00 PM46 °FPassing clouds.6 mph50%30.51 "HgN/A
2:30 PM46 °FPassing clouds.6 mph50%30.51 "HgN/A
2:00 PM46 °FSunny.1 mph46%30.51 "Hg10 mi
1:30 PM45 °FSunny.1 mph49%30.51 "Hg10 mi
1:00 PM43 °FPassing clouds.3 mph53%30.51 "HgN/A
12:30 PM43 °FPassing clouds.3 mph53%30.54 "HgN/A
12:00 PM41 °FClear.6 mph57%30.54 "Hg5 mi
11:30 AM39 °FClear.6 mph61%30.54 "Hg5 mi
11:00 AM39 °FClear.6 mph65%30.54 "Hg4 mi
10:30 AM37 °FClear.3 mph70%30.54 "Hg4 mi
10:00 AM37 °FClear.1 mph70%30.54 "Hg3 mi
9:30 AM34 °FFog.1 mph81%30.54 "Hg1 mi
9:00 AM32 °FIce fog.6 mph80%30.54 "Hg1 mi
8:30 AM30 °FIce fog.3 mph80%30.54 "Hg1 mi
8:00 AM30 °FIce fog.3 mph80%30.51 "Hg1 mi
7:30 AM32 °FIce fog.3 mph75%30.51 "Hg2 mi
7:00 AM32 °FIce fog.3 mph80%30.51 "Hg2 mi
6:30 AM30 °FIce fog.1 mph80%30.51 "Hg2 mi
6:00 AM32 °FIce fog.3 mph80%30.51 "Hg2 mi
5:30 AM30 °FClear.3 mph86%30.51 "Hg5 mi
5:00 AM30 °FClear.1 mph80%30.51 "Hg5 mi
4:30 AM32 °FClear.1 mph75%30.51 "Hg5 mi
4:00 AM32 °FClear.1 mph75%30.51 "Hg5 mi
3:30 AM34 °FClear.1 mph75%30.51 "Hg5 mi
3:00 AM34 °FPartly cloudy.1 mph70%30.51 "Hg5 mi
2:30 AM34 °FOvercast.1 mph70%30.51 "Hg5 mi
2:00 AM36 °FOvercast.1 mph65%30.51 "Hg5 mi
1:30 AM36 °FOvercast.1 mph65%30.48 "Hg5 mi
1:00 AM37 °FOvercast.1 mph60%30.51 "Hg5 mi
12:30 AM37 °FOvercast.1 mph65%30.48 "Hg5 mi
12:00 AM37 °FOvercast.No wind65%30.51 "Hg5 mi
11:30 PM
Oct 29
37 °FOvercast.1 mph60%30.51 "Hg5 mi
11:00 PM37 °FOvercast.No wind60%30.51 "Hg5 mi
10:30 PM37 °FOvercast.1 mph60%30.51 "Hg5 mi
10:00 PM37 °FOvercast.No wind60%30.51 "Hg5 mi
Weather by CustomWeather, © 2014

See weather overviewHow to use our weather pages